When you browse on this site, cookies collect data to enhance your experience and personalize the content and advertising you see.
Visit our Privacy Policy to learn more. By continuing to use the site, you agree to this use of cookies and data.
  • In Sweden
  • List of Countries
  • For 7 days
  • Water Temperature
  • Satellite Maps
  • Weather Map
  • Weather Widgets
  • user-avatar
    Login

    Hourly Weather Heswall

    Today, 26 June, Wednesday

    Time Temperature Precipitation Wind Pressure Humidity
    00:00 +16°C° 0 mm 2 mps 767 mmHg 84%
    01:00 +15°C° 0 mm 2 mps 767 mmHg 85%
    02:00 +15°C° 0 mm 2 mps 767 mmHg 85%
    03:00 +14°C° 0 mm 2 mps 768 mmHg 86%
    04:00 +14°C° 0 mm 2 mps 768 mmHg 85%
    05:00 +15°C° 0 mm 2 mps 768 mmHg 84%
    06:00 +14°C° 0 mm 3 mps 769 mmHg 83%
    07:00 +14°C° 0 mm 3 mps 769 mmHg 80%
    08:00 +16°C° 0 mm 3 mps 769 mmHg 78%
    09:00 +16°C° 0 mm 3 mps 769 mmHg 76%
    10:00 +18°C° 0 mm 3 mps 770 mmHg 73%
    11:00 +19°C° 0 mm 2 mps 770 mmHg 70%
    12:00 +20°C° 0 mm 2 mps 771 mmHg 66%
    13:00 +21°C° 0 mm 2 mps 770 mmHg 66%
    14:00 +21°C° 0 mm 3 mps 770 mmHg 66%
    15:00 +21°C° 0 mm 3 mps 770 mmHg 66%
    16:00 +21°C° 0 mm 3 mps 770 mmHg 68%
    17:00 +21°C° 0 mm 4 mps 770 mmHg 70%
    18:00 +20°C° 0 mm 4 mps 770 mmHg 72%
    19:00 +19°C° 0 mm 4 mps 770 mmHg 76%
    20:00 +18°C° 0 mm 4 mps 771 mmHg 80%
    21:00 +17°C° 0 mm 3 mps 771 mmHg 84%
    22:00 +16°C° 0 mm 3 mps 771 mmHg 85%
    23:00 +14°C° 0 mm 3 mps 771 mmHg 86%

    Tomorrow, 27 June, Thursday

    Time Temperature Precipitation Wind Pressure Humidity
    00:00 +13°C° 0 mm 3 mps 771 mmHg 88%
    01:00 +13°C° 0 mm 2 mps 771 mmHg 86%
    02:00 +12°C° 0 mm 2 mps 771 mmHg 85%
    03:00 +10°C° 0 mm 2 mps 771 mmHg 83%
    04:00 +12°C° 0 mm 2 mps 771 mmHg 79%
    05:00 +12°C° 0 mm 2 mps 771 mmHg 75%
    06:00 +13°C° 0 mm 2 mps 771 mmHg 71%
    07:00 +15°C° 0 mm 2 mps 771 mmHg 66%
    08:00 +16°C° 0 mm 2 mps 771 mmHg 62%
    09:00 +18°C° 0 mm 3 mps 771 mmHg 57%
    10:00 +19°C° 0 mm 3 mps 771 mmHg 57%
    11:00 +21°C° 0 mm 3 mps 771 mmHg 58%
    12:00 +22°C° 0 mm 4 mps 771 mmHg 58%
    13:00 +22°C° 0 mm 4 mps 770 mmHg 59%
    14:00 +23°C° 0 mm 4 mps 770 mmHg 59%
    15:00 +23°C° 0 mm 4 mps 770 mmHg 60%
    16:00 +23°C° 0 mm 5 mps 770 mmHg 63%
    17:00 +22°C° 0 mm 5 mps 769 mmHg 65%
    18:00 +22°C° 0 mm 5 mps 769 mmHg 68%
    19:00 +20°C° 0 mm 5 mps 769 mmHg 71%
    20:00 +17°C° 0 mm 5 mps 769 mmHg 74%
    21:00 +16°C° 0 mm 5 mps 769 mmHg 76%
    22:00 +15°C° 0 mm 5 mps 769 mmHg 78%
    23:00 +14°C° 0 mm 4 mps 769 mmHg 79%

    Day after tomorrow, 28 June, Friday

    Time Temperature Precipitation Wind Pressure Humidity
    00:00 +13°C° 0 mm 4 mps 769 mmHg 80%
    01:00 +12°C° 0 mm 4 mps 769 mmHg 82%
    02:00 +12°C° 0 mm 4 mps 768 mmHg 84%
    03:00 +11°C° 0 mm 4 mps 768 mmHg 86%
    04:00 +12°C° 0 mm 4 mps 768 mmHg 84%
    05:00 +12°C° 0 mm 4 mps 767 mmHg 83%
    06:00 +13°C° 0 mm 5 mps 767 mmHg 82%
    07:00 +14°C° 0 mm 5 mps 767 mmHg 77%
    08:00 +16°C° 0 mm 5 mps 767 mmHg 72%
    09:00 +17°C° 0 mm 6 mps 766 mmHg 67%
    10:00 +20°C° 0 mm 6 mps 766 mmHg 65%
    11:00 +21°C° 0 mm 6 mps 765 mmHg 63%
    12:00 +22°C° 0 mm 6 mps 765 mmHg 61%
    13:00 +23°C° 0 mm 6 mps 765 mmHg 62%
    14:00 +23°C° 0 mm 7 mps 764 mmHg 62%
    15:00 +24°C° 0 mm 7 mps 764 mmHg 63%
    16:00 +23°C° 0 mm 7 mps 763 mmHg 66%
    17:00 +23°C° 0 mm 6 mps 763 mmHg 69%
    18:00 +23°C° 0 mm 6 mps 763 mmHg 72%
    19:00 +21°C° 0 mm 6 mps 762 mmHg 75%
    20:00 +20°C° 0 mm 6 mps 762 mmHg 78%
    21:00 +19°C° 0 mm 5 mps 762 mmHg 80%
    22:00 +17°C° 0 mm 5 mps 762 mmHg 81%
    23:00 +16°C° 0 mm 5 mps 762 mmHg 81%

    29 June, Saturday

    Time Temperature Precipitation Wind Pressure Humidity
    00:00 +15°C° 0 mm 5 mps 762 mmHg 81%
    01:00 +14°C° 0 mm 5 mps 761 mmHg 82%
    02:00 +14°C° 0 mm 5 mps 761 mmHg 83%
    03:00 +13°C° 0 mm 5 mps 760 mmHg 83%
    04:00 +14°C° 0 mm 5 mps 760 mmHg 83%
    05:00 +14°C° 0 mm 5 mps 759 mmHg 82%
    06:00 +15°C° 0 mm 5 mps 759 mmHg 81%
    07:00 +17°C° 0 mm 4 mps 759 mmHg 81%
    08:00 +18°C° 0 mm 4 mps 758 mmHg 80%
    09:00 +19°C° 0 mm 4 mps 758 mmHg 80%
    10:00 +19°C° 0.3 mm 3 mps 758 mmHg 83%
    11:00 +19°C° 0.3 mm 3 mps 757 mmHg 86%
    12:00 +19°C° 0.3 mm 2 mps 757 mmHg 89%
    13:00 +20°C° 0.4 mm 2 mps 756 mmHg 87%
    14:00 +20°C° 0.4 mm 2 mps 756 mmHg 86%
    15:00 +22°C° 0.4 mm 1 mps 756 mmHg 85%
    16:00 +21°C° 0 mm 2 mps 756 mmHg 79%
    17:00 +21°C° 0 mm 2 mps 755 mmHg 73%
    18:00 +21°C° 0 mm 3 mps 755 mmHg 67%
    19:00 +19°C° 0 mm 3 mps 755 mmHg 71%
    20:00 +17°C° 0 mm 3 mps 756 mmHg 76%
    21:00 +14°C° 0 mm 4 mps 756 mmHg 81%
    22:00 +14°C° 0 mm 4 mps 756 mmHg 81%
    23:00 +14°C° 0 mm 5 mps 756 mmHg 81%

    30 June, Sunday

    Time Temperature Precipitation Wind Pressure Humidity
    00:00 +14°C° 0 mm 5 mps 756 mmHg 82%
    01:00 +14°C° 0 mm 5 mps 756 mmHg 82%
    02:00 +14°C° 0 mm 5 mps 756 mmHg 82%
    03:00 +14°C° 0 mm 4 mps 756 mmHg 83%
    04:00 +15°C° 0 mm 4 mps 756 mmHg 82%
    05:00 +15°C° 0 mm 4 mps 757 mmHg 81%
    06:00 +17°C° 0 mm 4 mps 757 mmHg 81%
    07:00 +17°C° 0 mm 4 mps 757 mmHg 78%
    08:00 +18°C° 0 mm 4 mps 757 mmHg 75%
    09:00 +18°C° 0 mm 4 mps 757 mmHg 73%
    10:00 +19°C° 0 mm 5 mps 757 mmHg 70%
    11:00 +19°C° 0 mm 6 mps 758 mmHg 67%
    12:00 +20°C° 0 mm 6 mps 758 mmHg 64%
    13:00 +20°C° 0 mm 6 mps 758 mmHg 63%
    14:00 +20°C° 0 mm 6 mps 758 mmHg 62%
    15:00 +20°C° 0 mm 6 mps 758 mmHg 61%
    16:00 +19°C° 0.1 mm 5 mps 758 mmHg 65%
    17:00 +19°C° 0.1 mm 5 mps 758 mmHg 68%
    18:00 +17°C° 0.1 mm 5 mps 758 mmHg 72%
    19:00 +16°C° 0 mm 5 mps 758 mmHg 75%
    20:00 +15°C° 0 mm 4 mps 759 mmHg 78%
    21:00 +14°C° 0 mm 4 mps 759 mmHg 81%
    22:00 +13°C° 0 mm 5 mps 759 mmHg 80%
    23:00 +13°C° 0 mm 5 mps 759 mmHg 78%

    1 July, Monday

    Time Temperature Precipitation Wind Pressure Humidity
    00:00 +13°C° 0 mm 5 mps 760 mmHg 77%
    01:00 +12°C° 0 mm 5 mps 760 mmHg 78%
    02:00 +11°C° 0 mm 6 mps 760 mmHg 80%
    03:00 +10°C° 0 mm 6 mps 760 mmHg 81%
    04:00 +11°C° 0 mm 6 mps 760 mmHg 79%
    05:00 +11°C° 0 mm 6 mps 760 mmHg 77%
    06:00 +11°C° 0 mm 7 mps 760 mmHg 75%
    07:00 +12°C° 0 mm 7 mps 760 mmHg 71%
    08:00 +14°C° 0 mm 7 mps 760 mmHg 68%
    09:00 +15°C° 0 mm 8 mps 760 mmHg 64%
    10:00 +15°C° 0 mm 8 mps 761 mmHg 68%
    11:00 +15°C° 0 mm 8 mps 761 mmHg 71%
    12:00 +15°C° 0 mm 8 mps 761 mmHg 75%
    13:00 +15°C° 0.1 mm 8 mps 761 mmHg 73%
    14:00 +15°C° 0.1 mm 7 mps 762 mmHg 72%
    15:00 +15°C° 0.1 mm 7 mps 762 mmHg 71%
    16:00 +15°C° 0 mm 7 mps 763 mmHg 69%
    17:00 +15°C° 0 mm 6 mps 763 mmHg 68%
    18:00 +15°C° 0 mm 6 mps 764 mmHg 66%
    19:00 +14°C° 0 mm 6 mps 764 mmHg 71%
    20:00 +13°C° 0 mm 5 mps 765 mmHg 75%
    21:00 +12°C° 0 mm 5 mps 765 mmHg 80%
    22:00 +10°C° 0 mm 5 mps 766 mmHg 82%
    23:00 +11°C° 0 mm 4 mps 766 mmHg 85%
    Show more